TimeEDT,TemperatureF,Dew PointF,Humidity,Sea Level PressureIn,VisibilityMPH,Wind Direction,Wind SpeedMPH,Gust SpeedMPH,PrecipitationIn,Events,Conditions,WindDirDegrees,DateUTC
12:53 AM,60.1,55.0,83,30.21,8.0,Calm,Calm,-,N/A,,Clear,0,2013-08-18 04:53:00
1:53 AM,59.0,55.0,87,30.20,7.0,Calm,Calm,-,N/A,,Clear,0,2013-08-18 05:53:00
2:53 AM,57.0,54.0,89,30.20,6.0,Calm,Calm,-,N/A,,Clear,0,2013-08-18 06:53:00
3:53 AM,57.0,55.0,93,30.20,6.0,Calm,Calm,-,N/A,,Clear,0,2013-08-18 07:53:00
4:53 AM,57.0,54.0,89,30.20,6.0,Calm,Calm,-,N/A,,Clear,0,2013-08-18 08:53:00
5:53 AM,57.9,55.9,93,30.20,6.0,Calm,Calm,-,N/A,,Mostly Cloudy,0,2013-08-18 09:53:00
6:53 AM,57.9,55.9,93,30.21,4.0,Calm,Calm,-,N/A,,Scattered Clouds,0,2013-08-18 10:53:00
7:53 AM,61.0,57.9,90,30.22,8.0,Calm,Calm,-,N/A,,Partly Cloudy,0,2013-08-18 11:53:00
8:53 AM,66.9,60.1,79,30.22,10.0,Variable,3.5,-,N/A,,Clear,0,2013-08-18 12:53:00
9:53 AM,71.1,61.0,70,30.23,10.0,NE,4.6,-,N/A,,Scattered Clouds,50,2013-08-18 13:53:00
10:53 AM,73.0,60.1,64,30.22,10.0,Calm,Calm,-,N/A,,Scattered Clouds,0,2013-08-18 14:53:00
11:53 AM,75.9,55.9,50,30.21,10.0,East,8.1,-,N/A,,Mostly Cloudy,80,2013-08-18 15:53:00
12:53 PM,75.0,53.1,46,30.20,10.0,ESE,3.5,-,N/A,,Mostly Cloudy,110,2013-08-18 16:53:00
1:53 PM,77.0,53.1,43,30.18,10.0,Variable,6.9,-,N/A,,Mostly Cloudy,0,2013-08-18 17:53:00
2:53 PM,79.0,53.1,40,30.17,10.0,Variable,5.8,-,N/A,,Scattered Clouds,0,2013-08-18 18:53:00
3:53 PM,80.1,52.0,38,30.15,10.0,SSE,5.8,-,N/A,,Partly Cloudy,150,2013-08-18 19:53:00
4:53 PM,79.0,53.1,40,30.14,10.0,ESE,3.5,-,N/A,,Mostly Cloudy,120,2013-08-18 20:53:00
5:53 PM,78.1,53.1,42,30.13,10.0,Calm,Calm,-,N/A,,Scattered Clouds,0,2013-08-18 21:53:00
6:53 PM,78.1,53.1,42,30.12,10.0,Calm,Calm,-,N/A,,Partly Cloudy,0,2013-08-18 22:53:00
7:53 PM,77.0,53.1,43,30.12,10.0,Calm,Calm,-,N/A,,Partly Cloudy,0,2013-08-18 23:53:00
8:53 PM,72.0,55.9,57,30.12,10.0,South,4.6,-,N/A,,Partly Cloudy,170,2013-08-19 00:53:00
9:53 PM,69.1,57.0,65,30.14,10.0,South,3.5,-,N/A,,Partly Cloudy,180,2013-08-19 01:53:00
10:53 PM,68.0,55.9,65,30.13,10.0,Calm,Calm,-,N/A,,Partly Cloudy,0,2013-08-19 02:53:00
11:53 PM,64.0,55.9,75,30.13,10.0,Calm,Calm,-,N/A,,Partly Cloudy,0,2013-08-19 03:53:00